Starlink 31313

operational
NORAD ID: 59088 Int'l Des: 2024-041 Owner: SPXS Country: US Constellation: starlink
LEOCIRCULAR

关于 Starlink 31313

正在加载描述...

实时位置

正在加载3D地球...

即将过境

高度历史

Altitude vs Time

uPlot chart will show altitude changes over time

两行轨道根数

1 59088U 24041Q 25302.79025845 .00000287 00000-0 19929-4 0 9994
2 59088 43.0017 329.8237 0000897 288.4200 71.6554 15.27580809 94252
Epoch: Oct 29, 2025 • Age: 35 hours

当前状态

高度 483.6 km
速度 7.63 km/s
星下点 26.04°N, 21.16°W
发射日期 Feb 29, 2024
运行时间 1.6 years
类型 internet

技术详情

分类 Payload
质量 730.00 kg
干质量 700.00 kg
总质量 730.00 kg
长度 0.30 m
直径 4.10 m
跨度 29.00 m
形状 Box + pan
制造商 SPXS
平台类型 Starlink V2M
阶段状态 In Orbit
所有者/国家 SPXS/US

大型星座

Loading constellations...